owner,sensor,date,latitude,longitude,vertical_datum,mass_concentration_of_oxygen_in_sea_water,qcFlag 
SCCF RECON,ioos:station:SCCF:11:1,2013-08-01T00:00:00Z,26.4679,-82.0631,1.79,5.24,1111122 
SCCF RECON,ioos:station:SCCF:11:1,2013-08-01T01:00:00Z,26.4679,-82.0631,1.86,5.72,1111122 
SCCF RECON,ioos:station:SCCF:11:1,2013-08-01T02:00:00Z,26.4679,-82.0631,1.91,4.7,1111122 
SCCF RECON,ioos:station:SCCF:11:1,2013-08-01T03:00:00Z,26.4679,-82.0631,1.94,3.92,1111122 
SCCF RECON,ioos:station:SCCF:11:1,2013-08-01T04:00:00Z,26.4679,-82.0631,1.94,2.82,1111122 
SCCF RECON,ioos:station:SCCF:11:1,2013-08-01T05:00:00Z,26.4679,-82.0631,1.92,2.84,1111122 
SCCF RECON,ioos:station:SCCF:11:1,2013-08-01T06:00:00Z,26.4679,-82.0631,1.864,3.77,1111122 
SCCF RECON,ioos:station:SCCF:11:1,2013-08-01T07:00:00Z,26.4679,-82.0631,1.8,4.27,1111122 
SCCF RECON,ioos:station:SCCF:11:1,2013-08-01T08:00:00Z,26.4679,-82.0631,1.77,3.8,1111122 
SCCF RECON,ioos:station:SCCF:11:1,2013-08-01T09:00:00Z,26.4679,-82.0631,1.81,3.66,1111122 
SCCF RECON,ioos:station:SCCF:11:1,2013-08-01T10:00:00Z,26.4679,-82.0631,1.92,3.76,1111122 
SCCF RECON,ioos:station:SCCF:11:1,2013-08-01T11:00:00Z,26.4679,-82.0631,2.03,3.36,1111122 
SCCF RECON,ioos:station:SCCF:11:1,2013-08-01T12:00:00Z,26.4679,-82.0631,2.107,3.06,1111122 
SCCF RECON,ioos:station:SCCF:11:1,2013-08-01T13:00:00Z,26.4679,-82.0631,2.16,4.49,1111122 
SCCF RECON,ioos:station:SCCF:11:1,2013-08-01T14:00:00Z,26.4679,-82.0631,2.14,3.72,1111122 
SCCF RECON,ioos:station:SCCF:11:1,2013-08-01T15:00:00Z,26.4679,-82.0631,2.09,3.39,1111122 
SCCF RECON,ioos:station:SCCF:11:1,2013-08-01T16:00:00Z,26.4679,-82.0631,1.998,3.69,1111122 
SCCF RECON,ioos:station:SCCF:11:1,2013-08-01T17:00:00Z,26.4679,-82.0631,1.866,4.84,1111122 
SCCF RECON,ioos:station:SCCF:11:1,2013-08-01T18:00:00Z,26.4679,-82.0631,1.75,4.93,1111122 
SCCF RECON,ioos:station:SCCF:11:1,2013-08-01T19:00:00Z,26.4679,-82.0631,1.64,5.3,1111122 
SCCF RECON,ioos:station:SCCF:11:1,2013-08-01T20:00:00Z,26.4679,-82.0631,1.537,6.25,1111122 
SCCF RECON,ioos:station:SCCF:11:1,2013-08-01T21:00:00Z,26.4679,-82.0631,1.48,6.98,1111122 
SCCF RECON,ioos:station:SCCF:11:1,2013-08-01T22:00:00Z,26.4679,-82.0631,1.47,7.19,1111122 
SCCF RECON,ioos:station:SCCF:11:1,2013-08-01T23:00:00Z,26.4679,-82.0631,1.599,7.5,1111122 
SCCF RECON,ioos:station:SCCF:11:1,2013-08-02T00:00:00Z,26.4679,-82.0631,1.71,5.9,1111122 
SCCF RECON,ioos:station:SCCF:11:1,2013-08-02T01:00:00Z,26.4679,-82.0631,1.8,6.93,1111122 
SCCF RECON,ioos:station:SCCF:11:1,2013-08-02T02:00:00Z,26.4679,-82.0631,1.88,6.59,1111122 
SCCF RECON,ioos:station:SCCF:11:1,2013-08-02T03:00:00Z,26.4679,-82.0631,1.94,5.87,1111122 
SCCF RECON,ioos:station:SCCF:11:1,2013-08-02T04:00:00Z,26.4679,-82.0631,1.94,5.4,1111122 
SCCF RECON,ioos:station:SCCF:11:1,2013-08-02T05:00:00Z,26.4679,-82.0631,1.9,5.48,1111122 
SCCF RECON,ioos:station:SCCF:11:1,2013-08-02T06:00:00Z,26.4679,-82.0631,1.9,4.7,1111122 
SCCF RECON,ioos:station:SCCF:11:1,2013-08-02T07:00:00Z,26.4679,-82.0631,1.84,4.99,1111122 
SCCF RECON,ioos:station:SCCF:11:1,2013-08-02T08:00:00Z,26.4679,-82.0631,1.84,4.73,1111122 
SCCF RECON,ioos:station:SCCF:11:1,2013-08-02T09:00:00Z,26.4679,-82.0631,1.84,4.84,1111122 
SCCF RECON,ioos:station:SCCF:11:1,2013-08-02T10:00:00Z,26.4679,-82.0631,1.87,4.2,1111122 
SCCF RECON,ioos:station:SCCF:11:1,2013-08-02T11:00:00Z,26.4679,-82.0631,1.96,4.77,1111122 
SCCF RECON,ioos:station:SCCF:11:1,2013-08-02T12:00:00Z,26.4679,-82.0631,2.02,3.08,1111122 
SCCF RECON,ioos:station:SCCF:11:1,2013-08-02T13:00:00Z,26.4679,-82.0631,2.09,3.06,1111122 
SCCF RECON,ioos:station:SCCF:11:1,2013-08-02T14:00:00Z,26.4679,-82.0631,2.138,3.14,1111122 
SCCF RECON,ioos:station:SCCF:11:1,2013-08-02T15:00:00Z,26.4679,-82.0631,2.16,3.05,1111122 
SCCF RECON,ioos:station:SCCF:11:1,2013-08-02T16:00:00Z,26.4679,-82.0631,2.12,2.47,1111122 
SCCF RECON,ioos:station:SCCF:11:1,2013-08-02T17:00:00Z,26.4679,-82.0631,2.03,4.87,1111122 
SCCF RECON,ioos:station:SCCF:11:1,2013-08-02T18:00:00Z,26.4679,-82.0631,1.89,6.52,1111122 
SCCF RECON,ioos:station:SCCF:11:1,2013-08-02T19:00:00Z,26.4679,-82.0631,1.73,6.28,1111122 
SCCF RECON,ioos:station:SCCF:11:1,2013-08-02T20:00:00Z,26.4679,-82.0631,1.59,6.24,1111122 
SCCF RECON,ioos:station:SCCF:11:1,2013-08-02T21:00:00Z,26.4679,-82.0631,1.475,6.19,1111122 
SCCF RECON,ioos:station:SCCF:11:1,2013-08-02T22:00:00Z,26.4679,-82.0631,1.43,7.13,1111122 
SCCF RECON,ioos:station:SCCF:11:1,2013-08-02T23:00:00Z,26.4679,-82.0631,1.47,7.88,1111122 
SCCF RECON,ioos:station:SCCF:11:1,2013-08-03T00:00:00Z,26.4679,-82.0631,1.61,6.29,1111122 
SCCF RECON,ioos:station:SCCF:11:1,2013-08-03T01:00:00Z,26.4679,-82.0631,1.76,6.46,1111122 
SCCF RECON,ioos:station:SCCF:11:1,2013-08-03T02:00:00Z,26.4679,-82.0631,1.849,7.07,1111122 
SCCF RECON,ioos:station:SCCF:11:1,2013-08-03T03:00:00Z,26.4679,-82.0631,1.915,5.7,1111122 
SCCF RECON,ioos:station:SCCF:11:1,2013-08-03T04:00:00Z,26.4679,-82.0631,1.98,5.51,1111122 
SCCF RECON,ioos:station:SCCF:11:1,2013-08-03T05:00:00Z,26.4679,-82.0631,2.0,4.61,1111122 
SCCF RECON,ioos:station:SCCF:11:1,2013-08-03T06:00:00Z,26.4679,-82.0631,1.99,4.19,1111122 
SCCF RECON,ioos:station:SCCF:11:1,2013-08-03T07:00:00Z,26.4679,-82.0631,1.95,4.52,1111122 
SCCF RECON,ioos:station:SCCF:11:1,2013-08-03T08:00:00Z,26.4679,-82.0631,1.91,3.9,1111122 
SCCF RECON,ioos:station:SCCF:11:1,2013-08-03T09:00:00Z,26.4679,-82.0631,1.861,5.05,1111122 
SCCF RECON,ioos:station:SCCF:11:1,2013-08-03T10:00:00Z,26.4679,-82.0631,1.84,4.93,1111122 
SCCF RECON,ioos:station:SCCF:11:1,2013-08-03T11:00:00Z,26.4679,-82.0631,1.9,3.95,1111122 
SCCF RECON,ioos:station:SCCF:11:1,2013-08-03T12:00:00Z,26.4679,-82.0631,1.998,4.8,1111122 
SCCF RECON,ioos:station:SCCF:11:1,2013-08-03T13:00:00Z,26.4679,-82.0631,2.08,4.48,1111122 
SCCF RECON,ioos:station:SCCF:11:1,2013-08-03T14:00:00Z,26.4679,-82.0631,2.163,4.55,1111122 
SCCF RECON,ioos:station:SCCF:11:1,2013-08-03T15:00:00Z,26.4679,-82.0631,2.19,4.11,1111122 
SCCF RECON,ioos:station:SCCF:11:1,2013-08-03T16:00:00Z,26.4679,-82.0631,2.179,3.48,1111122 
SCCF RECON,ioos:station:SCCF:11:1,2013-08-03T17:00:00Z,26.4679,-82.0631,2.1,4.21,1111122 
SCCF RECON,ioos:station:SCCF:11:1,2013-08-03T18:00:00Z,26.4679,-82.0631,1.96,6.06,1111122 
SCCF RECON,ioos:station:SCCF:11:1,2013-08-03T19:00:00Z,26.4679,-82.0631,1.832,6.27,1111122 
SCCF RECON,ioos:station:SCCF:11:1,2013-08-03T20:00:00Z,26.4679,-82.0631,1.676,6.31,1111122 
SCCF RECON,ioos:station:SCCF:11:1,2013-08-03T21:00:00Z,26.4679,-82.0631,1.53,6.0,1111122 
SCCF RECON,ioos:station:SCCF:11:1,2013-08-03T22:00:00Z,26.4679,-82.0631,1.465,5.72,1111122 
SCCF RECON,ioos:station:SCCF:11:1,2013-08-03T23:00:00Z,26.4679,-82.0631,1.393,5.41,1111122 
SCCF RECON,ioos:station:SCCF:11:1,2013-08-04T00:00:00Z,26.4679,-82.0631,1.47,4.68,1111122 
SCCF RECON,ioos:station:SCCF:11:1,2013-08-04T01:00:00Z,26.4679,-82.0631,1.62,4.7,1111122 
SCCF RECON,ioos:station:SCCF:11:1,2013-08-04T02:00:00Z,26.4679,-82.0631,1.77,5.48,1111122 
SCCF RECON,ioos:station:SCCF:11:1,2013-08-04T03:00:00Z,26.4679,-82.0631,1.86,5.39,1111122 
SCCF RECON,ioos:station:SCCF:11:1,2013-08-04T04:00:00Z,26.4679,-82.0631,1.93,4.84,1111122 
SCCF RECON,ioos:station:SCCF:11:1,2013-08-04T05:00:00Z,26.4679,-82.0631,1.99,4.72,1111122 
SCCF RECON,ioos:station:SCCF:11:1,2013-08-04T06:00:00Z,26.4679,-82.0631,1.98,4.19,1111122 
SCCF RECON,ioos:station:SCCF:11:1,2013-08-04T07:00:00Z,26.4679,-82.0631,1.94,4.33,1111122 
SCCF RECON,ioos:station:SCCF:11:1,2013-08-04T08:00:00Z,26.4679,-82.0631,1.88,4.29,1111122 
SCCF RECON,ioos:station:SCCF:11:1,2013-08-04T09:00:00Z,26.4679,-82.0631,1.787,4.37,1111122 
SCCF RECON,ioos:station:SCCF:11:1,2013-08-04T10:00:00Z,26.4679,-82.0631,1.71,3.73,1111122 
SCCF RECON,ioos:station:SCCF:11:1,2013-08-04T11:00:00Z,26.4679,-82.0631,1.78,3.77,1111122 
SCCF RECON,ioos:station:SCCF:11:1,2013-08-04T12:00:00Z,26.4679,-82.0631,1.897,4.52,1111122 
SCCF RECON,ioos:station:SCCF:11:1,2013-08-04T13:00:00Z,26.4679,-82.0631,2.0,4.3,1111122 
SCCF RECON,ioos:station:SCCF:11:1,2013-08-04T14:00:00Z,26.4679,-82.0631,2.09,4.17,1111122 
SCCF RECON,ioos:station:SCCF:11:1,2013-08-04T15:00:00Z,26.4679,-82.0631,2.17,3.51,1111122 
SCCF RECON,ioos:station:SCCF:11:1,2013-08-04T16:00:00Z,26.4679,-82.0631,2.179,3.9,1111122 
SCCF RECON,ioos:station:SCCF:11:1,2013-08-04T17:00:00Z,26.4679,-82.0631,2.12,3.9,1111122 
SCCF RECON,ioos:station:SCCF:11:1,2013-08-04T18:00:00Z,26.4679,-82.0631,2.048,5.47,1111122 
SCCF RECON,ioos:station:SCCF:11:1,2013-08-04T19:00:00Z,26.4679,-82.0631,1.92,6.6,1111122 
SCCF RECON,ioos:station:SCCF:11:1,2013-08-04T20:00:00Z,26.4679,-82.0631,1.75,6.69,1111122 
SCCF RECON,ioos:station:SCCF:11:1,2013-08-04T21:00:00Z,26.4679,-82.0631,1.59,6.54,1111122 
SCCF RECON,ioos:station:SCCF:11:1,2013-08-04T22:00:00Z,26.4679,-82.0631,1.49,6.33,1111122 
SCCF RECON,ioos:station:SCCF:11:1,2013-08-04T23:00:00Z,26.4679,-82.0631,1.4,6.41,1111122 
SCCF RECON,ioos:station:SCCF:11:1,2013-08-05T00:00:00Z,26.4679,-82.0631,1.41,6.37,1111122 
SCCF RECON,ioos:station:SCCF:11:1,2013-08-05T01:00:00Z,26.4679,-82.0631,1.54,6.74,1111122 
SCCF RECON,ioos:station:SCCF:11:1,2013-08-05T02:00:00Z,26.4679,-82.0631,1.7,4.69,1111122 
SCCF RECON,ioos:station:SCCF:11:1,2013-08-05T03:00:00Z,26.4679,-82.0631,1.835,5.94,1111122 
SCCF RECON,ioos:station:SCCF:11:1,2013-08-05T04:00:00Z,26.4679,-82.0631,1.94,5.61,1111122 
SCCF RECON,ioos:station:SCCF:11:1,2013-08-05T05:00:00Z,26.4679,-82.0631,2.01,5.05,1111122 
SCCF RECON,ioos:station:SCCF:11:1,2013-08-05T06:00:00Z,26.4679,-82.0631,2.02,4.48,1111122 
SCCF RECON,ioos:station:SCCF:11:1,2013-08-05T07:00:00Z,26.4679,-82.0631,1.98,4.77,1111122 
SCCF RECON,ioos:station:SCCF:11:1,2013-08-05T08:00:00Z,26.4679,-82.0631,1.89,5.06,1111122 
SCCF RECON,ioos:station:SCCF:11:1,2013-08-05T09:00:00Z,26.4679,-82.0631,1.82,4.99,1111122 
SCCF RECON,ioos:station:SCCF:11:1,2013-08-05T10:00:00Z,26.4679,-82.0631,1.78,4.94,1111122 
SCCF RECON,ioos:station:SCCF:11:1,2013-08-05T11:00:00Z,26.4679,-82.0631,1.74,4.7,1111122 
SCCF RECON,ioos:station:SCCF:11:1,2013-08-05T12:00:00Z,26.4679,-82.0631,1.79,4.78,1111122 
SCCF RECON,ioos:station:SCCF:11:1,2013-08-05T13:00:00Z,26.4679,-82.0631,1.92,5.39,1111122 
SCCF RECON,ioos:station:SCCF:11:1,2013-08-05T14:00:00Z,26.4679,-82.0631,2.02,5.51,1111122 
SCCF RECON,ioos:station:SCCF:11:1,2013-08-05T15:00:00Z,26.4679,-82.0631,2.11,5.22,1111122 
SCCF RECON,ioos:station:SCCF:11:1,2013-08-05T16:00:00Z,26.4679,-82.0631,2.18,4.52,1111122 
SCCF RECON,ioos:station:SCCF:11:1,2013-08-05T17:00:00Z,26.4679,-82.0631,2.19,4.17,1111122 
SCCF RECON,ioos:station:SCCF:11:1,2013-08-05T18:00:00Z,26.4679,-82.0631,2.11,5.09,1111122 
SCCF RECON,ioos:station:SCCF:11:1,2013-08-05T19:00:00Z,26.4679,-82.0631,1.953,7.37,1111122 
SCCF RECON,ioos:station:SCCF:11:1,2013-08-05T20:00:00Z,26.4679,-82.0631,1.79,7.75,1111122 
SCCF RECON,ioos:station:SCCF:11:1,2013-08-05T21:00:00Z,26.4679,-82.0631,1.65,7.68,1111122 
SCCF RECON,ioos:station:SCCF:11:1,2013-08-05T22:00:00Z,26.4679,-82.0631,1.5,7.55,1111122 
SCCF RECON,ioos:station:SCCF:11:1,2013-08-05T23:00:00Z,26.4679,-82.0631,1.4,7.42,1111122 
SCCF RECON,ioos:station:SCCF:11:1,2013-08-06T00:00:00Z,26.4679,-82.0631,1.36,7.17,1111122 
SCCF RECON,ioos:station:SCCF:11:1,2013-08-06T01:00:00Z,26.4679,-82.0631,1.42,6.72,1111122 
SCCF RECON,ioos:station:SCCF:11:1,2013-08-06T02:00:00Z,26.4679,-82.0631,1.56,6.46,1111122 
SCCF RECON,ioos:station:SCCF:11:1,2013-08-06T03:00:00Z,26.4679,-82.0631,1.73,6.02,1111122 
SCCF RECON,ioos:station:SCCF:11:1,2013-08-06T04:00:00Z,26.4679,-82.0631,1.86,5.81,1111122 
SCCF RECON,ioos:station:SCCF:11:1,2013-08-06T05:00:00Z,26.4679,-82.0631,1.93,5.63,1111122 
SCCF RECON,ioos:station:SCCF:11:1,2013-08-06T06:00:00Z,26.4679,-82.0631,1.98,5.33,1111122 
SCCF RECON,ioos:station:SCCF:11:1,2013-08-06T07:00:00Z,26.4679,-82.0631,1.96,5.43,1111122 
SCCF RECON,ioos:station:SCCF:11:1,2013-08-06T08:00:00Z,26.4679,-82.0631,1.86,5.37,1111122 
SCCF RECON,ioos:station:SCCF:11:1,2013-08-06T09:00:00Z,26.4679,-82.0631,1.79,5.33,1111122 
SCCF RECON,ioos:station:SCCF:11:1,2013-08-06T10:00:00Z,26.4679,-82.0631,1.72,4.79,1111122 
SCCF RECON,ioos:station:SCCF:11:1,2013-08-06T11:00:00Z,26.4679,-82.0631,1.66,4.86,1111122 
SCCF RECON,ioos:station:SCCF:11:1,2013-08-06T12:00:00Z,26.4679,-82.0631,1.68,4.25,1111122 
SCCF RECON,ioos:station:SCCF:11:1,2013-08-06T13:00:00Z,26.4679,-82.0631,1.78,5.37,1111122 
SCCF RECON,ioos:station:SCCF:11:1,2013-08-06T14:00:00Z,26.4679,-82.0631,1.91,5.95,1111122 
SCCF RECON,ioos:station:SCCF:11:1,2013-08-06T15:00:00Z,26.4679,-82.0631,2.05,5.2,1111122 
SCCF RECON,ioos:station:SCCF:11:1,2013-08-06T16:00:00Z,26.4679,-82.0631,2.14,4.43,1111122 
SCCF RECON,ioos:station:SCCF:11:1,2013-08-06T17:00:00Z,26.4679,-82.0631,2.17,4.45,1111122 
SCCF RECON,ioos:station:SCCF:11:1,2013-08-06T18:00:00Z,26.4679,-82.0631,2.15,3.9,1111122 
SCCF RECON,ioos:station:SCCF:11:1,2013-08-06T19:00:00Z,26.4679,-82.0631,2.07,5.67,1111122 
SCCF RECON,ioos:station:SCCF:11:1,2013-08-06T20:00:00Z,26.4679,-82.0631,1.94,8.52,1111122 
SCCF RECON,ioos:station:SCCF:11:1,2013-08-06T21:00:00Z,26.4679,-82.0631,1.78,8.21,1111122 
SCCF RECON,ioos:station:SCCF:11:1,2013-08-06T22:00:00Z,26.4679,-82.0631,1.62,7.57,1111122 
SCCF RECON,ioos:station:SCCF:11:1,2013-08-06T23:00:00Z,26.4679,-82.0631,1.497,7.33,1111122 
SCCF RECON,ioos:station:SCCF:11:1,2013-08-07T00:00:00Z,26.4679,-82.0631,1.41,6.93,1111122 
SCCF RECON,ioos:station:SCCF:11:1,2013-08-07T01:00:00Z,26.4679,-82.0631,1.4,7.89,1111122 
SCCF RECON,ioos:station:SCCF:11:1,2013-08-07T02:00:00Z,26.4679,-82.0631,1.515,7.03,1111122 
SCCF RECON,ioos:station:SCCF:11:1,2013-08-07T03:00:00Z,26.4679,-82.0631,1.692,5.96,1111122 
SCCF RECON,ioos:station:SCCF:11:1,2013-08-07T04:00:00Z,26.4679,-82.0631,1.85,6.78,1111122 
SCCF RECON,ioos:station:SCCF:11:1,2013-08-07T05:00:00Z,26.4679,-82.0631,1.96,5.61,1111122 
SCCF RECON,ioos:station:SCCF:11:1,2013-08-07T06:00:00Z,26.4679,-82.0631,2.03,4.77,1111122 
SCCF RECON,ioos:station:SCCF:11:1,2013-08-07T07:00:00Z,26.4679,-82.0631,2.01,4.21,1111122 
SCCF RECON,ioos:station:SCCF:11:1,2013-08-07T08:00:00Z,26.4679,-82.0631,1.92,5.08,1111122 
SCCF RECON,ioos:station:SCCF:11:1,2013-08-07T09:00:00Z,26.4679,-82.0631,1.81,5.35,1111122 
SCCF RECON,ioos:station:SCCF:11:1,2013-08-07T10:00:00Z,26.4679,-82.0631,1.73,5.04,1111122 
SCCF RECON,ioos:station:SCCF:11:1,2013-08-07T11:00:00Z,26.4679,-82.0631,1.67,4.78,1111122 
SCCF RECON,ioos:station:SCCF:11:1,2013-08-07T12:00:00Z,26.4679,-82.0631,1.64,4.62,1111122 
SCCF RECON,ioos:station:SCCF:11:1,2013-08-07T13:00:00Z,26.4679,-82.0631,1.68,4.69,1111122 
SCCF RECON,ioos:station:SCCF:11:1,2013-08-07T14:00:00Z,26.4679,-82.0631,1.79,4.71,1111122 
SCCF RECON,ioos:station:SCCF:11:1,2013-08-07T15:00:00Z,26.4679,-82.0631,1.95,5.17,1111122 
SCCF RECON,ioos:station:SCCF:11:1,2013-08-07T16:00:00Z,26.4679,-82.0631,2.07,4.9,1111122 
SCCF RECON,ioos:station:SCCF:11:1,2013-08-07T17:00:00Z,26.4679,-82.0631,2.14,4.93,1111122 
SCCF RECON,ioos:station:SCCF:11:1,2013-08-07T18:00:00Z,26.4679,-82.0631,2.18,3.82,1111122 
SCCF RECON,ioos:station:SCCF:11:1,2013-08-07T19:00:00Z,26.4679,-82.0631,2.14,4.11,1111122 
SCCF RECON,ioos:station:SCCF:11:1,2013-08-07T20:00:00Z,26.4679,-82.0631,2.02,6.18,1111122 
SCCF RECON,ioos:station:SCCF:11:1,2013-08-07T21:00:00Z,26.4679,-82.0631,1.85,8.08,1111122 
SCCF RECON,ioos:station:SCCF:11:1,2013-08-07T22:00:00Z,26.4679,-82.0631,1.695,7.65,1111122 
SCCF RECON,ioos:station:SCCF:11:1,2013-08-07T23:00:00Z,26.4679,-82.0631,1.588,7.11,1111122 
SCCF RECON,ioos:station:SCCF:11:1,2013-08-08T00:00:00Z,26.4679,-82.0631,1.45,6.69,1111122 
SCCF RECON,ioos:station:SCCF:11:1,2013-08-08T01:00:00Z,26.4679,-82.0631,1.4,6.23,1111122 
SCCF RECON,ioos:station:SCCF:11:1,2013-08-08T02:00:00Z,26.4679,-82.0631,1.486,5.78,1111122 
SCCF RECON,ioos:station:SCCF:11:1,2013-08-08T03:00:00Z,26.4679,-82.0631,1.67,5.84,1111122 
SCCF RECON,ioos:station:SCCF:11:1,2013-08-08T04:00:00Z,26.4679,-82.0631,1.83,5.23,1111122 
SCCF RECON,ioos:station:SCCF:11:1,2013-08-08T05:00:00Z,26.4679,-82.0631,1.94,5.45,1111122 
SCCF RECON,ioos:station:SCCF:11:1,2013-08-08T06:00:00Z,26.4679,-82.0631,2.02,5.27,1111122 
SCCF RECON,ioos:station:SCCF:11:1,2013-08-08T07:00:00Z,26.4679,-82.0631,2.05,4.64,1111122 
SCCF RECON,ioos:station:SCCF:11:1,2013-08-08T08:00:00Z,26.4679,-82.0631,2.05,4.7,1111122 
SCCF RECON,ioos:station:SCCF:11:1,2013-08-08T09:00:00Z,26.4679,-82.0631,1.94,5.12,1111122 
SCCF RECON,ioos:station:SCCF:11:1,2013-08-08T10:00:00Z,26.4679,-82.0631,1.83,4.75,1111122 
SCCF RECON,ioos:station:SCCF:11:1,2013-08-08T11:00:00Z,26.4679,-82.0631,1.739,4.42,1111122 
SCCF RECON,ioos:station:SCCF:11:1,2013-08-08T12:00:00Z,26.4679,-82.0631,1.65,4.4,1111122 
SCCF RECON,ioos:station:SCCF:11:1,2013-08-08T13:00:00Z,26.4679,-82.0631,1.66,3.6,1111122 
SCCF RECON,ioos:station:SCCF:11:1,2013-08-08T14:00:00Z,26.4679,-82.0631,1.77,5.38,1111122 
SCCF RECON,ioos:station:SCCF:11:1,2013-08-08T15:00:00Z,26.4679,-82.0631,1.94,5.65,1111122 
SCCF RECON,ioos:station:SCCF:11:1,2013-08-08T16:00:00Z,26.4679,-82.0631,2.08,5.68,1111122 
SCCF RECON,ioos:station:SCCF:11:1,2013-08-08T17:00:00Z,26.4679,-82.0631,2.179,4.92,1111122 
SCCF RECON,ioos:station:SCCF:11:1,2013-08-08T18:00:00Z,26.4679,-82.0631,2.22,5.03,1111122 
SCCF RECON,ioos:station:SCCF:11:1,2013-08-08T19:00:00Z,26.4679,-82.0631,2.24,5.17,1111122 
SCCF RECON,ioos:station:SCCF:11:1,2013-08-08T20:00:00Z,26.4679,-82.0631,2.171,5.79,1111122 
SCCF RECON,ioos:station:SCCF:11:1,2013-08-08T21:00:00Z,26.4679,-82.0631,2.07,5.96,1111122 
SCCF RECON,ioos:station:SCCF:11:1,2013-08-08T22:00:00Z,26.4679,-82.0631,1.91,7.18,1111122 
SCCF RECON,ioos:station:SCCF:11:1,2013-08-08T23:00:00Z,26.4679,-82.0631,1.74,6.7,1111122 
SCCF RECON,ioos:station:SCCF:11:1,2013-08-09T00:00:00Z,26.4679,-82.0631,1.65,6.67,1111122 
SCCF RECON,ioos:station:SCCF:11:1,2013-08-09T01:00:00Z,26.4679,-82.0631,1.53,6.52,1111122 
SCCF RECON,ioos:station:SCCF:11:1,2013-08-09T02:00:00Z,26.4679,-82.0631,1.539,5.97,1111122 
SCCF RECON,ioos:station:SCCF:11:1,2013-08-09T03:00:00Z,26.4679,-82.0631,1.629,5.48,1111122 
SCCF RECON,ioos:station:SCCF:11:1,2013-08-09T04:00:00Z,26.4679,-82.0631,1.82,5.61,1111122 
SCCF RECON,ioos:station:SCCF:11:1,2013-08-09T05:00:00Z,26.4679,-82.0631,1.94,5.52,1111122 
SCCF RECON,ioos:station:SCCF:11:1,2013-08-09T06:00:00Z,26.4679,-82.0631,2.03,5.59,1111122 
SCCF RECON,ioos:station:SCCF:11:1,2013-08-09T07:00:00Z,26.4679,-82.0631,2.086,5.29,1111122 
SCCF RECON,ioos:station:SCCF:11:1,2013-08-09T08:00:00Z,26.4679,-82.0631,2.08,5.0,1111122 
SCCF RECON,ioos:station:SCCF:11:1,2013-08-09T09:00:00Z,26.4679,-82.0631,2.0,5.12,1111122 
SCCF RECON,ioos:station:SCCF:11:1,2013-08-09T10:00:00Z,26.4679,-82.0631,1.89,5.23,1111122 
SCCF RECON,ioos:station:SCCF:11:1,2013-08-09T11:00:00Z,26.4679,-82.0631,1.81,4.55,1111122 
SCCF RECON,ioos:station:SCCF:11:1,2013-08-09T12:00:00Z,26.4679,-82.0631,1.69,4.63,1111122 
SCCF RECON,ioos:station:SCCF:11:1,2013-08-09T13:00:00Z,26.4679,-82.0631,1.626,4.19,1111122 
SCCF RECON,ioos:station:SCCF:11:1,2013-08-09T14:00:00Z,26.4679,-82.0631,1.697,5.0,1111122 
SCCF RECON,ioos:station:SCCF:11:1,2013-08-09T15:00:00Z,26.4679,-82.0631,1.848,5.56,1111122 
SCCF RECON,ioos:station:SCCF:11:1,2013-08-09T16:00:00Z,26.4679,-82.0631,2.02,5.65,1111122 
SCCF RECON,ioos:station:SCCF:11:1,2013-08-09T17:00:00Z,26.4679,-82.0631,2.13,5.5,1111122 
SCCF RECON,ioos:station:SCCF:11:1,2013-08-09T18:00:00Z,26.4679,-82.0631,2.21,4.02,1111122 
SCCF RECON,ioos:station:SCCF:11:1,2013-08-09T19:00:00Z,26.4679,-82.0631,2.28,5.45,1111122 
SCCF RECON,ioos:station:SCCF:11:1,2013-08-09T20:00:00Z,26.4679,-82.0631,2.19,5.7,1111122 
SCCF RECON,ioos:station:SCCF:11:1,2013-08-09T21:00:00Z,26.4679,-82.0631,2.084,5.56,1111122 
SCCF RECON,ioos:station:SCCF:11:1,2013-08-09T22:00:00Z,26.4679,-82.0631,1.95,6.28,1111122 
SCCF RECON,ioos:station:SCCF:11:1,2013-08-09T23:00:00Z,26.4679,-82.0631,1.796,6.27,1111122 
SCCF RECON,ioos:station:SCCF:11:1,2013-08-10T00:00:00Z,26.4679,-82.0631,1.7,6.21,1111122 
SCCF RECON,ioos:station:SCCF:11:1,2013-08-10T01:00:00Z,26.4679,-82.0631,1.59,6.17,1111122 
SCCF RECON,ioos:station:SCCF:11:1,2013-08-10T02:00:00Z,26.4679,-82.0631,1.533,5.86,1111122 
SCCF RECON,ioos:station:SCCF:11:1,2013-08-10T03:00:00Z,26.4679,-82.0631,1.59,5.35,1111122 
SCCF RECON,ioos:station:SCCF:11:1,2013-08-10T04:00:00Z,26.4679,-82.0631,1.781,5.28,1111122 
SCCF RECON,ioos:station:SCCF:11:1,2013-08-10T05:00:00Z,26.4679,-82.0631,1.9,5.55,1111122 
SCCF RECON,ioos:station:SCCF:11:1,2013-08-10T06:00:00Z,26.4679,-82.0631,2.05,5.49,1111122 
SCCF RECON,ioos:station:SCCF:11:1,2013-08-10T07:00:00Z,26.4679,-82.0631,2.13,5.13,1111122 
SCCF RECON,ioos:station:SCCF:11:1,2013-08-10T08:00:00Z,26.4679,-82.0631,2.17,4.42,1111122 
SCCF RECON,ioos:station:SCCF:11:1,2013-08-10T09:00:00Z,26.4679,-82.0631,2.12,4.91,1111122 
SCCF RECON,ioos:station:SCCF:11:1,2013-08-10T10:00:00Z,26.4679,-82.0631,2.0,5.08,1111122 
SCCF RECON,ioos:station:SCCF:11:1,2013-08-10T11:00:00Z,26.4679,-82.0631,1.835,4.69,1111122 
SCCF RECON,ioos:station:SCCF:11:1,2013-08-10T12:00:00Z,26.4679,-82.0631,1.72,4.24,1111122 
SCCF RECON,ioos:station:SCCF:11:1,2013-08-10T13:00:00Z,26.4679,-82.0631,1.67,4.34,1111122 
SCCF RECON,ioos:station:SCCF:11:1,2013-08-10T14:00:00Z,26.4679,-82.0631,1.63,4.18,1111122 
SCCF RECON,ioos:station:SCCF:11:1,2013-08-10T15:00:00Z,26.4679,-82.0631,1.716,5.15,1111122 
SCCF RECON,ioos:station:SCCF:11:1,2013-08-10T16:00:00Z,26.4679,-82.0631,1.85,5.94,1111122 
SCCF RECON,ioos:station:SCCF:11:1,2013-08-10T17:00:00Z,26.4679,-82.0631,1.962,5.62,1111122 
SCCF RECON,ioos:station:SCCF:11:1,2013-08-10T18:00:00Z,26.4679,-82.0631,2.02,5.85,1111122 
SCCF RECON,ioos:station:SCCF:11:1,2013-08-10T19:00:00Z,26.4679,-82.0631,2.09,4.78,1111122 
SCCF RECON,ioos:station:SCCF:11:1,2013-08-10T20:00:00Z,26.4679,-82.0631,2.17,4.77,1111122 
SCCF RECON,ioos:station:SCCF:11:1,2013-08-10T21:00:00Z,26.4679,-82.0631,2.15,4.11,1111122 
SCCF RECON,ioos:station:SCCF:11:1,2013-08-10T22:00:00Z,26.4679,-82.0631,2.04,7.06,1111122 
SCCF RECON,ioos:station:SCCF:11:1,2013-08-10T23:00:00Z,26.4679,-82.0631,1.9,7.98,1111122 
SCCF RECON,ioos:station:SCCF:11:1,2013-08-11T00:00:00Z,26.4679,-82.0631,1.77,8.04,1111122 
SCCF RECON,ioos:station:SCCF:11:1,2013-08-11T01:00:00Z,26.4679,-82.0631,1.68,7.81,1111122 
SCCF RECON,ioos:station:SCCF:11:1,2013-08-11T02:00:00Z,26.4679,-82.0631,1.58,7.81,1111122 
SCCF RECON,ioos:station:SCCF:11:1,2013-08-11T03:00:00Z,26.4679,-82.0631,1.58,6.6,1111122 
SCCF RECON,ioos:station:SCCF:11:1,2013-08-11T04:00:00Z,26.4679,-82.0631,1.68,6.45,1111122 
SCCF RECON,ioos:station:SCCF:11:1,2013-08-11T05:00:00Z,26.4679,-82.0631,1.865,6.08,1111122 
SCCF RECON,ioos:station:SCCF:11:1,2013-08-11T06:00:00Z,26.4679,-82.0631,2.01,5.77,1111122 
SCCF RECON,ioos:station:SCCF:11:1,2013-08-11T07:00:00Z,26.4679,-82.0631,2.08,5.49,1111122 
SCCF RECON,ioos:station:SCCF:11:1,2013-08-11T08:00:00Z,26.4679,-82.0631,2.11,5.23,1111122 
SCCF RECON,ioos:station:SCCF:11:1,2013-08-11T09:00:00Z,26.4679,-82.0631,2.07,4.76,1111122 
SCCF RECON,ioos:station:SCCF:11:1,2013-08-11T10:00:00Z,26.4679,-82.0631,1.99,5.42,1111122 
SCCF RECON,ioos:station:SCCF:11:1,2013-08-11T11:00:00Z,26.4679,-82.0631,1.895,5.34,1111122 
SCCF RECON,ioos:station:SCCF:11:1,2013-08-11T12:00:00Z,26.4679,-82.0631,1.78,5.03,1111122 
SCCF RECON,ioos:station:SCCF:11:1,2013-08-11T13:00:00Z,26.4679,-82.0631,1.69,4.87,1111122 
SCCF RECON,ioos:station:SCCF:11:1,2013-08-11T14:00:00Z,26.4679,-82.0631,1.6,5.23,1111122 
SCCF RECON,ioos:station:SCCF:11:1,2013-08-11T15:00:00Z,26.4679,-82.0631,1.58,5.43,1111122 
SCCF RECON,ioos:station:SCCF:11:1,2013-08-11T16:00:00Z,26.4679,-82.0631,1.64,5.34,1111122 
SCCF RECON,ioos:station:SCCF:11:1,2013-08-11T17:00:00Z,26.4679,-82.0631,1.762,6.04,1111122 
SCCF RECON,ioos:station:SCCF:11:1,2013-08-11T18:00:00Z,26.4679,-82.0631,1.895,5.99,1111122 
SCCF RECON,ioos:station:SCCF:11:1,2013-08-11T19:00:00Z,26.4679,-82.0631,1.98,5.68,1111122 
SCCF RECON,ioos:station:SCCF:11:1,2013-08-11T20:00:00Z,26.4679,-82.0631,2.04,5.19,1111122 
SCCF RECON,ioos:station:SCCF:11:1,2013-08-11T21:00:00Z,26.4679,-82.0631,2.07,4.66,1111122 